Location: Recife
(8.0585°S, 34.8848°W)
Time: 12:03:48
(UTC-03:00)

Vanguard 2 - Pass Details

Date: 23 April 2026
Orbit: 554 x 2894 km, 32.9° (Epoch: 7 May)

Event Time Altitude Azimuth Distance (km) Brightness Sun altitude
Rises 00:58:00 0° 232° (SW) 6,585 - -65.0°
Reaches altitude 10° 01:02:53 10° 224° (SW) 5,680 - -63.8°
Maximum altitude 01:18:53 39° 160° (SSE) 3,632 - -59.9°
Exits shadow 01:23:02 35° 133° (SE) 3,663 10.9 -58.9°
Drops below altitude 10° 01:32:03 10° 96° (E) 4,755 11.9 -56.7°
Sets 01:35:39 0° 88° (E) 5,463 12.4 -55.9°
